TimeCDT,TemperatureF,Dew PointF,Humidity,Sea Level PressureIn,VisibilityMPH,Wind Direction,Wind SpeedMPH,Gust SpeedMPH,PrecipitationIn,Events,Conditions,WindDirDegrees,DateUTC
12:15 AM,86.0,66.2,51,29.98,10.0,South,6.9,-,N/A,,Clear,170,2013-06-27 05:15:00
12:35 AM,84.2,66.2,55,29.98,10.0,South,8.1,-,N/A,,Clear,170,2013-06-27 05:35:00
1:15 AM,84.2,68.0,58,29.98,10.0,South,5.8,-,N/A,,Clear,170,2013-06-27 06:15:00
1:35 AM,82.4,69.8,66,29.98,10.0,South,4.6,-,N/A,,Clear,170,2013-06-27 06:35:00
1:55 AM,82.4,69.8,66,29.98,10.0,Calm,Calm,-,N/A,,Clear,0,2013-06-27 06:55:00
2:15 AM,82.4,69.8,66,29.99,10.0,Calm,Calm,-,N/A,,Clear,0,2013-06-27 07:15:00
2:35 AM,82.4,69.8,66,29.99,10.0,South,4.6,-,N/A,,Clear,170,2013-06-27 07:35:00
2:55 AM,80.6,69.8,70,29.99,10.0,Calm,Calm,-,N/A,,Clear,0,2013-06-27 07:55:00
3:15 AM,78.8,69.8,74,29.99,10.0,Calm,Calm,-,N/A,,Clear,0,2013-06-27 08:15:00
3:35 AM,78.8,69.8,74,30.00,10.0,Calm,Calm,-,N/A,,Clear,0,2013-06-27 08:35:00
3:55 AM,78.8,71.6,78,30.00,10.0,Calm,Calm,-,N/A,,Clear,0,2013-06-27 08:55:00
4:15 AM,77.0,71.6,83,30.01,10.0,Calm,Calm,-,N/A,,Clear,0,2013-06-27 09:15:00
4:35 AM,77.0,69.8,78,30.01,10.0,Calm,Calm,-,N/A,,Clear,0,2013-06-27 09:35:00
4:55 AM,77.0,69.8,78,30.01,10.0,Calm,Calm,-,N/A,,Clear,0,2013-06-27 09:55:00
5:15 AM,77.0,69.8,78,30.02,10.0,SSE,5.8,-,N/A,,Clear,160,2013-06-27 10:15:00
5:35 AM,75.2,69.8,83,30.03,10.0,Calm,Calm,-,N/A,,Clear,0,2013-06-27 10:35:00
5:55 AM,75.2,69.8,83,30.03,10.0,Calm,Calm,-,N/A,,Clear,0,2013-06-27 10:55:00
6:15 AM,75.2,69.8,83,30.04,10.0,Calm,Calm,-,N/A,,Clear,0,2013-06-27 11:15:00
6:35 AM,73.4,69.8,88,30.04,9.0,Calm,Calm,-,N/A,,Clear,0,2013-06-27 11:35:00
6:55 AM,73.4,69.8,88,30.04,10.0,Calm,Calm,-,N/A,,Clear,0,2013-06-27 11:55:00
7:15 AM,73.4,69.8,88,30.05,9.0,Calm,Calm,-,N/A,,Clear,0,2013-06-27 12:15:00
7:35 AM,75.2,69.8,83,30.06,9.0,Calm,Calm,-,N/A,,Clear,0,2013-06-27 12:35:00
7:55 AM,77.0,69.8,78,30.07,10.0,SSE,4.6,-,N/A,,Clear,160,2013-06-27 12:55:00
8:15 AM,78.8,69.8,74,30.07,10.0,SSW,6.9,-,N/A,,Clear,200,2013-06-27 13:15:00
8:35 AM,80.6,68.0,65,30.08,10.0,South,5.8,-,N/A,,Clear,190,2013-06-27 13:35:00
8:55 AM,80.6,68.0,65,30.08,10.0,South,8.1,-,N/A,,Clear,190,2013-06-27 13:55:00
9:15 AM,82.4,66.2,58,30.08,10.0,South,6.9,-,N/A,,Clear,180,2013-06-27 14:15:00
9:35 AM,84.2,66.2,55,30.08,10.0,SSW,5.8,-,N/A,,Clear,200,2013-06-27 14:35:00
9:55 AM,84.2,64.4,51,30.08,10.0,South,9.2,-,N/A,,Clear,190,2013-06-27 14:55:00
10:15 AM,87.8,64.4,46,30.08,10.0,SSW,4.6,-,N/A,,Clear,200,2013-06-27 15:15:00
10:35 AM,87.8,62.6,43,30.07,10.0,SSE,4.6,-,N/A,,Clear,160,2013-06-27 15:35:00
10:55 AM,89.6,62.6,40,30.07,10.0,SSE,6.9,-,N/A,,Clear,160,2013-06-27 15:55:00
11:15 AM,89.6,62.6,40,30.07,10.0,South,6.9,-,N/A,,Clear,170,2013-06-27 16:15:00
11:35 AM,91.4,60.8,36,30.06,10.0,SSW,9.2,-,N/A,,Clear,210,2013-06-27 16:35:00
11:55 AM,93.2,59.0,32,30.06,10.0,SSW,3.5,-,N/A,,Clear,200,2013-06-27 16:55:00
12:15 PM,95.0,57.2,28,30.05,10.0,South,5.8,-,N/A,,Clear,180,2013-06-27 17:15:00
12:35 PM,96.8,59.0,28,30.05,10.0,Calm,Calm,-,N/A,,Partly Cloudy,0,2013-06-27 17:35:00
12:55 PM,96.8,57.2,27,30.04,-9999.0,SSE,4.6,-,N/A,,Unknown,160,2013-06-27 17:55:00
1:15 PM,98.6,55.4,24,30.03,10.0,South,3.5,-,N/A,,Clear,190,2013-06-27 18:15:00
1:35 PM,98.6,53.6,22,30.03,10.0,Calm,Calm,-,N/A,,Clear,0,2013-06-27 18:35:00
1:55 PM,100.4,53.6,21,30.02,10.0,Calm,Calm,-,N/A,,Clear,0,2013-06-27 18:55:00
2:15 PM,100.4,53.6,21,30.01,10.0,WSW,6.9,-,N/A,,Partly Cloudy,250,2013-06-27 19:15:00
2:35 PM,100.4,53.6,21,30.00,10.0,Calm,Calm,-,N/A,,Partly Cloudy,0,2013-06-27 19:35:00
2:55 PM,102.2,53.6,20,30.00,10.0,SSE,10.4,-,N/A,,Clear,160,2013-06-27 19:55:00
3:15 PM,102.2,51.8,18,29.99,10.0,South,6.9,-,N/A,,Clear,190,2013-06-27 20:15:00
3:35 PM,104.0,51.8,17,29.99,10.0,South,3.5,-,N/A,,Clear,190,2013-06-27 20:35:00
3:55 PM,104.0,50.0,16,29.98,10.0,SSE,8.1,-,N/A,,Clear,160,2013-06-27 20:55:00
4:15 PM,102.2,48.2,16,29.98,10.0,ESE,8.1,-,N/A,,Clear,110,2013-06-27 21:15:00
4:35 PM,104.0,48.2,15,29.97,10.0,East,9.2,-,N/A,,Clear,100,2013-06-27 21:35:00
4:55 PM,104.0,50.0,16,29.97,10.0,SSE,9.2,-,N/A,,Clear,150,2013-06-27 21:55:00
5:15 PM,104.0,53.6,19,29.96,10.0,SE,10.4,18.4,N/A,,Clear,130,2013-06-27 22:15:00
5:35 PM,102.2,53.6,20,29.96,10.0,SE,6.9,-,N/A,,Clear,130,2013-06-27 22:35:00
5:55 PM,102.2,51.8,18,29.95,10.0,ESE,5.8,16.1,N/A,,Clear,120,2013-06-27 22:55:00
6:15 PM,102.2,51.8,18,29.95,10.0,ESE,9.2,-,N/A,,Clear,120,2013-06-27 23:15:00
6:35 PM,102.2,50.0,17,29.95,10.0,SE,9.2,16.1,N/A,,Clear,130,2013-06-27 23:35:00
6:55 PM,102.2,50.0,17,29.95,10.0,SE,9.2,-,N/A,,Clear,140,2013-06-27 23:55:00
7:15 PM,100.4,48.2,17,29.95,10.0,SE,8.1,-,N/A,,Clear,130,2013-06-28 00:15:00
7:35 PM,100.4,50.0,18,29.95,10.0,SSE,10.4,-,N/A,,Clear,150,2013-06-28 00:35:00
7:55 PM,98.6,51.8,21,29.95,10.0,SSE,5.8,-,N/A,,Clear,160,2013-06-28 00:55:00
8:15 PM,96.8,51.8,22,29.96,10.0,SSE,6.9,-,N/A,,Clear,160,2013-06-28 01:15:00
8:35 PM,95.0,51.8,23,29.96,10.0,SSE,3.5,-,N/A,,Clear,160,2013-06-28 01:35:00
8:55 PM,93.2,51.8,24,29.96,10.0,South,3.5,-,N/A,,Clear,180,2013-06-28 01:55:00
9:15 PM,91.4,53.6,28,29.95,10.0,South,5.8,-,N/A,,Clear,180,2013-06-28 02:15:00
9:35 PM,89.6,53.6,29,29.95,10.0,Calm,Calm,-,N/A,,Clear,0,2013-06-28 02:35:00
9:55 PM,87.8,53.6,31,29.95,10.0,Calm,Calm,-,N/A,,Clear,0,2013-06-28 02:55:00
10:15 PM,84.2,53.6,35,29.96,10.0,Calm,Calm,-,N/A,,Clear,0,2013-06-28 03:15:00
10:35 PM,82.4,55.4,39,29.98,10.0,Calm,Calm,-,N/A,,Clear,0,2013-06-28 03:35:00
10:55 PM,80.6,53.6,39,29.99,10.0,Calm,Calm,-,N/A,,Clear,0,2013-06-28 03:55:00
11:15 PM,80.6,55.4,42,30.00,10.0,Calm,Calm,-,N/A,,Clear,0,2013-06-28 04:15:00
11:35 PM,78.8,55.4,44,30.01,10.0,Calm,Calm,-,N/A,,Clear,0,2013-06-28 04:35:00
11:55 PM,77.0,55.4,47,30.02,10.0,Calm,Calm,-,N/A,,Clear,0,2013-06-28 04:55:00